Regional Weather Roundup
Issued by NWS

Home | Current Version | Previous Version | Text Only | Print | Product List | Glossary On
Versions: 1 2 3 4 5 6 7 8 9 10 11 12 13 14 15 16 17 18 19 20 21 22 23 24 25 26 27 28 29 30 31 32 33 34 35 36 37 38 39 40 41 42 43 44 45 46 47 48 49 50
000
ASUS44 KEWX 230411
RWRTX
SOUTH TEXAS REGIONAL WEATHER ROUNDUP
NATIONAL WEATHER SERVICE AUSTIN/SAN ANTONIO TX
1100 PM CDT FRI MAY 22 2015

NOTE: "FAIR" INDICATED FEW OR NO CLOUDS BELOW 12,000 FEET WITH NO
SIGNIFICANT WEATHER AND/OR OBSTRUCTIONS TO VISIBILITY.

* - THESE STATIONS ARE NOT NWS OR FAA STATIONS...AND ARE NOT SUBJECT
    TO NWS AND FAA QUALITY CONTROL.

TXZ171-172-183>190-230500-
TEXAS HILL COUNTRY AND EDWARDS PLATEAU

CITY           SKY/WX    TMP DP  RH WIND       PRES   REMARKS
JUNCTION       MOCLDY    72  69  90 E5        30.05R
*LLANO         CLOUDY    73  72  94 SE8       30.10S
BURNET         CLOUDY    72  69  90 E8        30.10R
*HORSESHOE BAY CLOUDY    74  71  89 SE6       30.07S
*KERRVILLE     MOCLDY    74  71  92 E7        30.07R
*FREDERICKSBRG CLOUDY    73  70  90 SE6       30.08R
*ROCKSPRINGS   MOCLDY    73  70  88 SE12      30.07F
*BOERNE STAGE    N/A     72  70  94 SE10      30.08R
*CASTROVILLE   CLOUDY    76  74  91 E9        30.06R
HONDO          CLOUDY    76  73  91 E13       30.05R
*UVALDE        PTCLDY    76  73  91 E9        30.03R
DEL RIO        CLOUDY    78  69  73 E12       29.96S
LAUGHLIN AFB   NOT AVBL
CARRIZO SPRGS  CLOUDY    77  73  88 SE9G16    29.98R
$$

TXZ173-191>194-202-209-217>225-228-230500-
CENTRAL AND SOUTH CENTRAL TEXAS

CITY           SKY/WX    TMP DP  RH WIND       PRES   REMARKS
GEORGETOWN     CLOUDY    73  72  94 SE5       30.07S
AUSTIN/BERGSTM CLOUDY    74  72  93 SE9       30.06R
AUSTIN/MABRY   CLOUDY    74  71  91 SE7       30.07S
*AUSTIN/EXEC   CLOUDY    73  72  94 SE8       30.08S
*LAGO VISTA    CLOUDY    74  71  92 SE9       30.09S
SAN MARCOS     CLOUDY    75  70  83 SE12      30.07S
NEW BRAUNFELS  CLOUDY    76  73  91 SE7       30.05R
RANDOLPH AFB   CLOUDY    76  73  90 E6        30.06R
PT SAN ANTONIO CLOUDY    77  73  89 E13       30.04R
SAN ANTONIO    CLOUDY    77  73  87 SE12      30.06R
STINSON FIELD  CLOUDY    77  73  87 E12       30.03R
*PLEASANTON    MOCLDY    76  74  92 E6        30.03R
*LA GRANGE     CLOUDY    76  73  93 SE7       30.06S
*GIDDINGS      CLOUDY    73  70  89 SE6       30.12S
*GONZALES      MOCLDY    76  75  95 E9        30.06S
$$

TXZ163>164-176>182-195>201-210>213-226-227-235-230500-
SOUTHEAST TEXAS

CITY           SKY/WX    TMP DP  RH WIND       PRES   REMARKS
COLLEGE STN    CLOUDY    73  68  84 SE10      30.10R
*BRYAN         PTCLDY    71  69  94 SE8       30.12R
*CALDWELL      CLEAR     72  72 100 MISG      30.13R
*CROCKETT      NOT AVBL
*BRENHAM       CLEAR     74  71  91 E6        30.11R
HUNTSVILLE     MOCLDY    72  67  84 E3        30.12R
CONROE         CLOUDY    72  68  87 SE7       30.12R
HOUSTON BUSH   MOCLDY    73  70  90 E9        30.10R
HOUSTON HOBBY  MOCLDY    76  74  93 E6        30.09S
*HOUSTON SW AP NOT AVBL
PEARLAND       PTCLDY    77  74  90 E8        30.11R
HOUSTON HOOKS  CLOUDY    73  69  87 E8        30.11R
ELLINGTON FLD  MOCLDY    75  72  88 E6        30.12R
SUGAR LAND     PTCLDY    77  72  84 E7        30.09R
*HOUSTON EXEC  PTCLDY    75  72  88 SE9       30.11R
*CLEVELAND MUN PTCLDY    70  69  98 CALM      30.13R FOG
*WHARTON       CLOUDY    75  72  91 E7        30.09R
*COLUMBUS      FAIR      73  72  95 E6        30.08R
$$

TXZ214>216-236>238-230500-
THE UPPER TEXAS COAST

CITY           SKY/WX    TMP DP  RH WIND       PRES   REMARKS
*ORANGE        PTCLDY    73  69  88 E7        30.15S
PORT ARTHUR    PTCLDY    75  70  84 E8        30.12S
GALVESTON      PTCLDY    79  76  90 E13       30.11R
ANGLETON       CLOUDY    74  74 100 SE5       30.09R
*BAY CITY      CLOUDY    77  76  99 E7        30.08R
PALACIOS       MOCLDY    77  74  90 E6        30.07R
$$

TXZ229>234-239>247-230500-
TEXAS COASTAL BEND AND RIO GRANDE PLAINS

CITY           SKY/WX    TMP DP  RH WIND       PRES   REMARKS
VICTORIA       MOCLDY    76  75  97 E8        30.06R
*BEEVILLE      MOCLDY    76  76 100 E7        30.03R
ROCKPORT       PTCLDY    80  75  84 SE15      30.03R
*PORT ARANSAS  MOCLDY    80  76  89 SE10G16   30.03R
*PORT LAVACA   MOCLDY    77  75  94 SE7       30.06R
*INGLESIDE     PTCLDY    81  76  84 SE9       30.02R
CORPUS CHRISTI PTCLDY    79  75  87 SE12      30.02R
CORPUS NAS     PTCLDY   N/A N/A N/A SE17      30.02R
*ROBSTOWN      PTCLDY    79  79 100 SE7       30.02R
ALICE          CLEAR     78  75  90 SE8       30.02R
KINGSVILLE NAS PTCLDY    79  78  97 SE7       30.02R
COTULLA        MOCLDY    78  74  87 SE14      29.99R
*FAITH RANCH     N/A     79  75  89 VRB5      30.00R
LAREDO         MOCLDY    80  75  84 SE12      30.01R
$$

TXZ248>255-230500-
DEEP SOUTH TEXAS

CITY           SKY/WX    TMP DP  RH WIND       PRES   REMARKS
BROWNSVILLE    MOCLDY    80  75  84 SE9       30.02R
PORT ISABEL    MOCLDY    80  76  87 SE13      30.01R
*SOUTH PADRE     N/A     84  84 100 S12       30.02R HX 104
HARLINGEN      MOCLDY    78  75  90 SE6       30.01R
*HEBBRONVILLE    N/A     77  74  88 E9        30.03R
MCALLEN        PTCLDY    80  74  81 SE7       30.02R
*WESLACO       MOCLDY    78  72  82 SE8       30.01R
FALFURRIAS     CLEAR     78  74  88 SE7       30.01R
EDINBURG       MOCLDY    79  74  82 SE7       30.02R
*ZAPATA        MOCLDY    80  72  77 SE8       29.99R
$$

TXZ213>215-236>238-242>244-246-247-251-254-255-230500-
CMAN STATIONS

STATION/POSITION TIME  TEMP    WIND        PRES    WAVE
                       AIR SEA DIR/SP/G            HT/PER
                 (UTC) (F)     (DEG/KT/KT) (MB)    (FT/S)
$$

GMZ080-GMZ150>470-230500-
OFFSHORE BUOY REPORTS

STATION/POSITION TIME  TEMP    WIND        PRES    WAVE
                       AIR SEA DIR/SP/G            HT/PER
                 (UTC) (F)     (DEG/KT/KT) (MB)    (FT/S)
$$


USA.gov is the U.S. government's official web portal to all federal, state and local government web resources and services.